When you browse on this site, cookies collect data to enhance your experience and personalize the content and advertising you see.
Visit our Privacy Policy to learn more. By continuing to use the site, you agree to this use of cookies and data.
  • In Hungary
  • List of Countries
  • For 7 days
  • Water Temperature
  • Weather Map
  • News
  • Weather Widgets
  • user-avatar
    Login

    Hourly Weather Wolfsberg

    Today, 9 December, Monday

    Time Temperature Precipitation Wind Pressure Humidity
    00:00 +1°C° 0 mm 2 mps 712 mmHg 88%
    01:00 +1°C° 0 mm 2 mps 711 mmHg 88%
    02:00 +1°C° 0 mm 2 mps 711 mmHg 89%
    03:00 +2°C° 0 mm 1 mps 710 mmHg 89%
    04:00 +2°C° 0 mm 1 mps 710 mmHg 89%
    05:00 +3°C° 0 mm 1 mps 710 mmHg 89%
    06:00 +3°C° 0 mm 1 mps 710 mmHg 89%
    07:00 +3°C° 0 mm 1 mps 710 mmHg 89%
    08:00 +4°C° 0 mm 1 mps 710 mmHg 87%
    09:00 +5°C° 0 mm 1 mps 710 mmHg 86%
    10:00 +5°C° 0 mm 0 mps 710 mmHg 84%
    11:00 +5°C° 0.2 mm 0 mps 710 mmHg 87%
    12:00 +6°C° 0.2 mm 1 mps 709 mmHg 89%
    13:00 +6°C° 0.2 mm 1 mps 709 mmHg 92%
    14:00 +4°C° 1.5 mm 0 mps 708 mmHg 94%
    15:00 +4°C° 1.5 mm 0 mps 708 mmHg 96%
    16:00 +3°C° 1.5 mm 0 mps 708 mmHg 98%
    17:00 +3°C° 1 mm 0 mps 708 mmHg 98%
    18:00 +3°C° 1 mm 0 mps 709 mmHg 98%
    19:00 +3°C° 1 mm 0 mps 709 mmHg 98%
    20:00 +3°C° 0.1 mm 0 mps 709 mmHg 98%
    21:00 +3°C° 0.1 mm 0 mps 710 mmHg 98%
    22:00 +3°C° 0.1 mm 0 mps 710 mmHg 97%
    23:00 +3°C° 0 mm 0 mps 711 mmHg 96%

    Tomorrow, 10 December, Tuesday

    Time Temperature Precipitation Wind Pressure Humidity
    00:00 +4°C° 0 mm 1 mps 711 mmHg 96%
    01:00 +3°C° 0 mm 1 mps 712 mmHg 95%
    02:00 +3°C° 0 mm 1 mps 712 mmHg 94%
    03:00 +3°C° 0 mm 1 mps 712 mmHg 93%
    04:00 +3°C° 0 mm 1 mps 713 mmHg 93%
    05:00 +2°C° 0 mm 1 mps 713 mmHg 92%
    06:00 +2°C° 0 mm 1 mps 714 mmHg 91%
    07:00 +2°C° 0 mm 1 mps 715 mmHg 90%
    08:00 +2°C° 0 mm 2 mps 716 mmHg 84%
    09:00 +3°C° 0 mm 2 mps 717 mmHg 78%
    10:00 +4°C° 0 mm 2 mps 718 mmHg 72%
    11:00 +3°C° 0 mm 3 mps 718 mmHg 66%
    12:00 +3°C° 0 mm 3 mps 718 mmHg 61%
    13:00 +3°C° 0 mm 3 mps 719 mmHg 55%
    14:00 +2°C° 0 mm 3 mps 719 mmHg 60%
    15:00 +1°C° 0 mm 2 mps 719 mmHg 66%
    16:00 -1°C° 0 mm 2 mps 719 mmHg 71%
    17:00 -1°C° 0 mm 2 mps 719 mmHg 73%
    18:00 -2°C° 0 mm 2 mps 720 mmHg 76%
    19:00 -3°C° 0 mm 2 mps 720 mmHg 78%
    20:00 -3°C° 0 mm 2 mps 720 mmHg 79%
    21:00 -3°C° 0 mm 2 mps 720 mmHg 80%
    22:00 -3°C° 0 mm 2 mps 720 mmHg 81%
    23:00 -1°C° 0 mm 1 mps 720 mmHg 81%

    Day after tomorrow, 11 December, Wednesday

    Time Temperature Precipitation Wind Pressure Humidity
    00:00 -2°C° 0 mm 1 mps 720 mmHg 81%
    01:00 -2°C° 0 mm 1 mps 720 mmHg 82%
    02:00 -2°C° 0 mm 1 mps 719 mmHg 80%
    03:00 -2°C° 0 mm 1 mps 719 mmHg 79%
    04:00 -3°C° 0 mm 1 mps 718 mmHg 78%
    05:00 -4°C° 0 mm 0 mps 718 mmHg 76%
    06:00 -4°C° 0 mm 0 mps 717 mmHg 73%
    07:00 -4°C° 0 mm 0 mps 717 mmHg 71%
    08:00 -3°C° 0 mm 0 mps 717 mmHg 66%
    09:00 -1°C° 0 mm 0 mps 716 mmHg 62%
    10:00 0°C° 0 mm 0 mps 716 mmHg 58%
    11:00 +1°C° 0 mm 0 mps 715 mmHg 55%
    12:00 +1°C° 0 mm 0 mps 714 mmHg 53%
    13:00 +3°C° 0 mm 1 mps 714 mmHg 51%
    14:00 +1°C° 0 mm 0 mps 713 mmHg 57%
    15:00 0°C° 0 mm 0 mps 712 mmHg 63%
    16:00 -2°C° 0 mm 0 mps 711 mmHg 69%
    17:00 -2°C° 0 mm 0 mps 711 mmHg 68%
    18:00 -2°C° 0 mm 0 mps 711 mmHg 68%
    19:00 -2°C° 0 mm 0 mps 711 mmHg 67%
    20:00 -2°C° 0 mm 0 mps 711 mmHg 65%
    21:00 -2°C° 0 mm 0 mps 711 mmHg 64%
    22:00 -2°C° 0 mm 0 mps 711 mmHg 63%
    23:00 -2°C° 0 mm 0 mps 711 mmHg 62%

    12 December, Thursday

    Time Temperature Precipitation Wind Pressure Humidity
    00:00 -2°C° 0 mm 0 mps 711 mmHg 61%
    01:00 -2°C° 0 mm 0 mps 710 mmHg 60%
    02:00 -2°C° 0 mm 0 mps 710 mmHg 60%
    03:00 -2°C° 0 mm 0 mps 710 mmHg 60%
    04:00 -2°C° 0 mm 0 mps 710 mmHg 60%
    05:00 -2°C° 0 mm 0 mps 710 mmHg 60%
    06:00 -1°C° 0 mm 0 mps 710 mmHg 60%
    07:00 -1°C° 0 mm 0 mps 710 mmHg 60%
    08:00 0°C° 0 mm 0 mps 710 mmHg 62%
    09:00 0°C° 0 mm 0 mps 711 mmHg 63%
    10:00 +1°C° 0 mm 0 mps 711 mmHg 65%
    11:00 +2°C° 0.2 mm 1 mps 711 mmHg 68%
    12:00 +3°C° 0.2 mm 1 mps 711 mmHg 71%
    13:00 +3°C° 0.2 mm 1 mps 711 mmHg 74%
    14:00 +2°C° 0 mm 1 mps 711 mmHg 77%
    15:00 +2°C° 0 mm 1 mps 711 mmHg 80%
    16:00 0°C° 0 mm 0 mps 711 mmHg 82%
    17:00 0°C° 0 mm 0 mps 711 mmHg 83%
    18:00 0°C° 0 mm 0 mps 711 mmHg 84%
    19:00 -1°C° 0 mm 0 mps 711 mmHg 84%
    20:00 -1°C° 0 mm 0 mps 711 mmHg 86%
    21:00 0°C° 0 mm 1 mps 710 mmHg 87%
    22:00 -1°C° 0 mm 1 mps 710 mmHg 89%
    23:00 -1°C° 0 mm 1 mps 709 mmHg 90%

    13 December, Friday

    Time Temperature Precipitation Wind Pressure Humidity
    00:00 -1°C° 0 mm 1 mps 708 mmHg 92%
    01:00 -1°C° 0 mm 1 mps 707 mmHg 93%
    02:00 -1°C° 0 mm 1 mps 706 mmHg 93%
    03:00 -1°C° 0 mm 1 mps 704 mmHg 92%
    04:00 -1°C° 0 mm 1 mps 703 mmHg 92%
    05:00 -2°C° 0 mm 2 mps 702 mmHg 90%
    06:00 -2°C° 0 mm 2 mps 702 mmHg 89%
    07:00 -2°C° 0 mm 2 mps 701 mmHg 88%
    08:00 -2°C° 0 mm 2 mps 700 mmHg 84%
    09:00 -1°C° 0 mm 2 mps 700 mmHg 81%
    10:00 +1°C° 0 mm 2 mps 699 mmHg 77%
    11:00 +1°C° 0.5 mm 2 mps 698 mmHg 81%
    12:00 +1°C° 0.5 mm 2 mps 698 mmHg 84%
    13:00 +1°C° 0.5 mm 2 mps 697 mmHg 88%
    14:00 +2°C° 1.2 mm 1 mps 697 mmHg 90%
    15:00 +2°C° 1.2 mm 1 mps 697 mmHg 92%
    16:00 +2°C° 1.2 mm 1 mps 698 mmHg 94%
    17:00 +1°C° 0 mm 1 mps 699 mmHg 93%
    18:00 +1°C° 0 mm 1 mps 699 mmHg 93%
    19:00 0°C° 0 mm 1 mps 700 mmHg 92%
    20:00 0°C° 0 mm 1 mps 701 mmHg 91%
    21:00 0°C° 0 mm 1 mps 702 mmHg 90%
    22:00 -1°C° 0 mm 1 mps 702 mmHg 89%
    23:00 -1°C° 0 mm 1 mps 703 mmHg 88%

    14 December, Saturday

    Time Temperature Precipitation Wind Pressure Humidity
    00:00 -1°C° 0 mm 1 mps 703 mmHg 88%
    01:00 -1°C° 0 mm 1 mps 703 mmHg 88%
    02:00 -1°C° 0 mm 1 mps 703 mmHg 87%
    03:00 -1°C° 0 mm 1 mps 703 mmHg 87%
    04:00 -1°C° 0 mm 1 mps 703 mmHg 87%
    05:00 -1°C° 0 mm 1 mps 703 mmHg 86%
    06:00 -1°C° 0 mm 1 mps 704 mmHg 85%
    07:00 -1°C° 0 mm 1 mps 704 mmHg 84%
    08:00 0°C° 0 mm 1 mps 704 mmHg 82%
    09:00 +1°C° 0 mm 1 mps 705 mmHg 79%
    10:00 +2°C° 0 mm 1 mps 705 mmHg 76%
    11:00 +3°C° 0 mm 1 mps 705 mmHg 76%
    12:00 +4°C° 0 mm 1 mps 705 mmHg 75%
    13:00 +3°C° 0 mm 2 mps 706 mmHg 74%
    14:00 +3°C° 0 mm 2 mps 706 mmHg 79%
    15:00 +3°C° 0 mm 1 mps 707 mmHg 83%
    16:00 +2°C° 0 mm 1 mps 708 mmHg 88%
    17:00 +2°C° 0 mm 1 mps 709 mmHg 88%
    18:00 +1°C° 0 mm 1 mps 710 mmHg 89%
    19:00 +1°C° 0 mm 1 mps 711 mmHg 89%
    20:00 +1°C° 0 mm 1 mps 711 mmHg 89%
    21:00 +1°C° 0 mm 1 mps 712 mmHg 89%
    22:00 +1°C° 0 mm 1 mps 713 mmHg 89%
    23:00 +1°C° 0 mm 1 mps 713 mmHg 89%
    Show more